Mayport NS, FL

8:25 PM EST on February 20, 2018 (GMT -0500)
Mayport Naval Station / Adm. David L. McDonald Field

Weather History for KNRB - February, 2013

Change the Weather History Date:

Monday, February 25, 2013

  Actual Average Record
Temperature  
Mean Temperature 63 °F -  
Max Temperature 66 °F 65 °F 81 °F (2011)
Min Temperature 60 °F 52 °F 43 °F (1999)
Degree Days  
Heating Degree Days 2    
Growing Degree Days 13 (Base 50)    
Moisture  
Dew Point 61 °F    
Average Humidity 94    
Maximum Humidity 100    
Minimum Humidity 78    
Precipitation  
Precipitation 1.48 in - - ()
Sea Level Pressure  
Sea Level Pressure 29.91 in    
Wind  
Wind Speed 12 mph (NE)    
Max Wind Speed 28 mph    
Max Gust Speed 54 mph    
Visibility 5 miles    
Events Rain , Thunderstorm    
Averages and records for this station are not official NWS values.
T = Trace of Precipitation, MM = Missing Value Source: NWS Daily Summary

Daily Weather History Graph

Daily Weather History Graph

Search for Another Location

Airport or City:

Trip Planner

Search our weather history database for the weather conditions in past years. The results will help you decide how hot, cold, wet, or windy it might be!

Date:

Astronomy

Feb. 25, 2013 Rise Set
Actual Time 6:55 AM EST 6:21 PM EST
Civil Twilight 6:31 AM EST 6:46 PM EST
Nautical Twilight 6:03 AM EST 7:14 PM EST
Astronomical Twilight 5:35 AM EST 7:41 PM EST
Moon 6:29 PM EST (2/25) 6:27 AM EST (2/25)
Length of Visible Light 12h 14m
Length of Day
11h 25m
Full, 100% of the Moon is Illuminated
Feb 25
Full
Feb 25
Full
Mar 4
Last Quarter
Mar 11
New
Mar 19
First Quarter

Hourly Weather History & Observations

Time (EST) Temp. Dew Point Humidity Pressure Visibility Wind Dir Wind Speed Gust Speed Precip Events Conditions
12:52 AM 63.0 °F 55.9 °F 78% 29.94 in 10.0 mi ENE 6.9 mph - N/A   Clear
1:52 AM 63.0 °F 59.0 °F 87% 29.94 in 10.0 mi ENE 4.6 mph - N/A   Scattered Clouds
2:52 AM 63.0 °F 57.9 °F 84% 29.92 in 10.0 mi NE 6.9 mph - N/A   Scattered Clouds
3:31 AM 62.6 °F 59.0 °F 88% 29.92 in 10.0 mi ENE 6.9 mph - 0.01 in Rain , Thunderstorm Light Thunderstorms and Rain
3:52 AM 63.0 °F 60.1 °F 90% 29.90 in 9.0 mi NE 8.1 mph - 0.03 in Rain Light Rain
4:52 AM 63.0 °F 60.1 °F 90% 29.91 in 10.0 mi NNE 9.2 mph - 0.04 in Rain Light Rain
5:12 AM 62.6 °F 59.0 °F 88% 29.92 in 7.0 mi NNE 9.2 mph - 0.02 in Rain Light Rain
5:37 AM 62.6 °F 59.0 °F 88% 29.93 in 7.0 mi NNE 9.2 mph - 0.10 in Rain , Thunderstorm Light Thunderstorms and Rain
5:52 AM 61.0 °F 59.0 °F 93% 29.93 in 5.0 mi NNE 12.7 mph - 0.13 in Rain , Thunderstorm Light Thunderstorms and Rain
6:03 AM 60.8 °F 59.0 °F 94% 29.93 in 5.0 mi NNE 12.7 mph - 0.01 in Rain , Thunderstorm Light Thunderstorms and Rain
6:52 AM 61.0 °F 59.0 °F 93% 29.92 in 6.0 mi North 12.7 mph - 0.08 in Rain , Thunderstorm Light Thunderstorms and Rain
7:11 AM 60.8 °F 59.0 °F 94% 29.94 in 0.8 mi North 13.8 mph - 0.24 in Rain , Thunderstorm Heavy Thunderstorms and Rain
7:41 AM 60.8 °F 60.8 °F 100% 29.94 in 2.0 mi NNE 17.3 mph - 0.40 in Rain , Thunderstorm Thunderstorms and Rain
7:52 AM 61.0 °F 60.1 °F 97% 29.93 in 1.5 mi NNE 18.4 mph - 0.42 in Rain , Thunderstorm Thunderstorms and Rain
8:04 AM 60.8 °F 60.8 °F 100% 29.94 in 2.0 mi NE 18.4 mph 21.9 mph 0.02 in Rain Light Rain
8:41 AM 60.8 °F 60.8 °F 100% 29.93 in 2.0 mi NE 19.6 mph - 0.17 in Rain , Thunderstorm Thunderstorms and Rain
8:52 AM 61.0 °F 60.1 °F 97% 29.94 in 1.5 mi NE 18.4 mph - 0.20 in Rain , Thunderstorm Light Thunderstorms and Rain
9:10 AM 62.6 °F 60.8 °F 94% 29.95 in 3.0 mi NE 16.1 mph - 0.02 in Rain Light Rain
9:52 AM 62.1 °F 61.0 °F 96% 29.97 in 7.0 mi North 9.2 mph - 0.02 in Thunderstorm Thunderstorm
10:20 AM 62.6 °F 60.8 °F 94% 29.95 in 7.0 mi NE 17.3 mph - N/A   Overcast
10:52 AM 63.0 °F 62.1 °F 97% 29.93 in 8.0 mi NE 15.0 mph - N/A   Overcast
11:08 AM 62.6 °F 62.6 °F 100% 29.94 in 6.0 mi NE 18.4 mph - N/A   Overcast
11:52 AM 63.0 °F 61.0 °F 93% 29.92 in 8.0 mi ENE 15.0 mph - N/A   Overcast
12:52 PM 64.0 °F 60.1 °F 87% 29.95 in 5.0 mi SW 27.6 mph 54.1 mph 0.01 in Rain Light Rain
1:08 PM 66.2 °F 60.8 °F 83% 29.89 in 10.0 mi East 11.5 mph 31.1 mph 0.01 in   Overcast
1:52 PM 63.0 °F 61.0 °F 93% 29.91 in 4.0 mi NNE 12.7 mph 21.9 mph 0.02 in Rain Light Rain
2:04 PM 62.6 °F 62.6 °F 100% 29.91 in 1.0 mi NE 13.8 mph - 0.06 in Rain Rain
2:26 PM 62.6 °F 62.6 °F 100% 29.90 in 3.0 mi NE 11.5 mph - 0.09 in Rain Light Rain
2:52 PM 63.0 °F 62.1 °F 97% 29.88 in 6.0 mi ENE 13.8 mph - 0.09 in Rain Light Rain
3:52 PM 64.0 °F 63.0 °F 96% 29.87 in 6.0 mi NE 13.8 mph - 0.04 in Rain Light Rain
4:52 PM 63.0 °F 62.1 °F 97% 29.87 in 3.0 mi NNE 15.0 mph 20.7 mph 0.02 in Rain Light Rain
5:36 PM 60.8 °F 60.8 °F 100% 29.88 in 2.0 mi NNE 16.1 mph 21.9 mph 0.08 in Rain Light Rain
5:52 PM 61.0 °F 60.1 °F 97% 29.90 in 2.0 mi North 13.8 mph 19.6 mph 0.10 in Rain Light Rain
6:22 PM 60.8 °F 60.8 °F 100% 29.89 in 1.0 mi NNE 23.0 mph 29.9 mph 0.11 in Rain Light Rain
6:52 PM 61.0 °F 60.1 °F 97% 29.88 in 2.0 mi NNE 20.7 mph 27.6 mph 0.23 in Rain Heavy Rain
7:52 PM 63.0 °F 62.1 °F 97% 29.88 in 2.0 mi NE 12.7 mph - N/A Rain Heavy Rain
8:52 PM 64.9 °F 64.0 °F 97% 29.87 in 4.0 mi East 13.8 mph - 0.04 in Rain Light Rain
9:52 PM 66.0 °F 64.9 °F 96% 29.85 in 7.0 mi East 15.0 mph - 0.01 in   Overcast
10:23 PM 66.2 °F 64.4 °F 94% 29.84 in 8.0 mi East 15.0 mph - N/A   Overcast
10:52 PM 66.9 °F 66.0 °F 97% 29.82 in 8.0 mi East 16.1 mph 24.2 mph N/A   Mostly Cloudy
11:52 PM 66.9 °F 64.9 °F 93% 29.81 in 8.0 mi ESE 17.3 mph - N/A   Mostly Cloudy